Omaha Millard, NE

4:57 PM CDT on June 24, 2017 (GMT -0500)
Millard Municipal

Weather History for KMLE - April, 2013

Change the Weather History Date:

Friday, April 5, 2013

  Actual Average (KOFF) Record (KOFF)
Temperature  
Mean Temperature 52 °F -  
Max Temperature 69 °F 56 °F 75 °F (2006)
Min Temperature 36 °F 36 °F 19 °F (2014)
Degree Days  
Heating Degree Days 12    
Growing Degree Days 2 (Base 50)    
Moisture  
Dew Point 41 °F    
Average Humidity 65    
Maximum Humidity 100    
Minimum Humidity 36    
Precipitation  
Precipitation 0.00 in - - ()
Sea Level Pressure  
Sea Level Pressure 29.99 in    
Wind  
Wind Speed 7 mph (SE)    
Max Wind Speed 20 mph    
Max Gust Speed 26 mph    
Visibility 10 miles    
Events      
Averages and records for this station are not official NWS values.
T = Trace of Precipitation, MM = Missing Value Source: NWS Daily Summary

Daily Weather History Graph

Daily Weather History Graph

Search for Another Location

Airport or City:

Trip Planner

Search our weather history database for the weather conditions in past years. The results will help you decide how hot, cold, wet, or windy it might be!

Date:

Astronomy

Apr. 05, 2013 Rise Set
Actual Time 7:00 AM CDT 7:54 PM CDT
Civil Twilight 6:32 AM CDT 8:22 PM CDT
Nautical Twilight 5:59 AM CDT 8:55 PM CDT
Astronomical Twilight 5:24 AM CDT 9:30 PM CDT
Moon 4:11 AM CDT (4/5) 3:16 PM CDT (4/5)
Length of Visible Light 13h 49m
Length of Day
12h 53m
Waning Crescent, 23% of the Moon is Illuminated
Apr 5
Waning Crescent
Apr 10
New
Apr 18
First Quarter
Apr 25
Full
May 2
Last Quarter

Hourly Weather History & Observations

Time (CDT) Temp. Windchill Dew Point Humidity Pressure Visibility Wind Dir Wind Speed Gust Speed Precip Events Conditions
12:15 AM 49.5 °F - 30.2 °F 48% 30.12 in 10.0 mi NE 3.5 mph - N/A   Clear
12:35 AM 48.6 °F - 30.2 °F 49% 30.12 in 10.0 mi ENE 3.5 mph - N/A   Clear
12:55 AM 48.2 °F - 30.4 °F 50% 30.13 in 10.0 mi Calm Calm - N/A   Clear
1:15 AM 47.1 °F - 31.1 °F 54% 30.14 in 10.0 mi Calm Calm - N/A   Clear
1:35 AM 46.4 °F 45.2 °F 31.1 °F 55% 30.14 in 10.0 mi NE 3.5 mph - N/A   Clear
1:55 AM 45.7 °F - 31.1 °F 57% 30.15 in 10.0 mi Calm Calm - N/A   Clear
2:15 AM 44.8 °F - 31.1 °F 59% 30.15 in 10.0 mi Calm Calm - N/A   Clear
2:35 AM 44.1 °F - 31.1 °F 60% 30.15 in 10.0 mi Calm Calm - N/A   Clear
2:55 AM 42.6 °F - 31.3 °F 64% 30.14 in 10.0 mi Calm Calm - N/A   Clear
3:15 AM 42.8 °F - 31.6 °F 65% 30.15 in 10.0 mi Calm Calm - N/A   Clear
3:35 AM 42.1 °F 39.2 °F 31.8 °F 67% 30.15 in 10.0 mi ENE 4.6 mph - N/A   Clear
3:55 AM 41.5 °F 37.8 °F 31.8 °F 68% 30.15 in 10.0 mi East 5.8 mph - N/A   Clear
4:15 AM 41.0 °F 38.0 °F 31.8 °F 70% 30.15 in 10.0 mi East 4.6 mph - N/A   Clear
4:35 AM 40.1 °F 36.9 °F 31.6 °F 72% 30.15 in 10.0 mi East 4.6 mph - N/A   Clear
4:55 AM 39.6 °F 36.3 °F 31.6 °F 73% 30.16 in 10.0 mi East 4.6 mph - N/A   Clear
5:15 AM 38.7 °F 36.3 °F 31.3 °F 75% 30.16 in 10.0 mi East 3.5 mph - N/A   Clear
5:35 AM 38.3 °F 35.9 °F 31.3 °F 76% 30.16 in 10.0 mi East 3.5 mph - N/A   Clear
5:55 AM 37.9 °F 34.4 °F 31.1 °F 76% 30.17 in 10.0 mi East 4.6 mph - N/A   Clear
6:15 AM 37.4 °F - 31.1 °F 78% 30.17 in 10.0 mi Calm Calm - N/A   Clear
6:35 AM 36.9 °F - 31.1 °F 80% 30.17 in 10.0 mi Calm Calm - N/A   Clear
6:55 AM 36.7 °F 34.1 °F 30.7 °F 79% 30.18 in 10.0 mi ESE 3.5 mph - N/A   Clear
7:15 AM 36.5 °F 32.7 °F 30.7 °F 80% 30.17 in 10.0 mi ESE 4.6 mph - N/A   Clear
7:35 AM 36.1 °F 33.5 °F 31.1 °F 82% 30.16 in 10.0 mi ESE 3.5 mph - N/A   Clear
7:55 AM 36.9 °F 30.7 °F 31.1 °F 80% 30.16 in 10.0 mi ESE 8.1 mph - N/A   Clear
8:15 AM 37.4 °F 31.4 °F 31.1 °F 78% 30.14 in 10.0 mi ESE 8.1 mph - N/A   Clear
8:35 AM 38.5 °F 33.4 °F 31.3 °F 75% 30.16 in 10.0 mi ESE 6.9 mph - N/A   Clear
8:55 AM 40.1 °F 33.2 °F 31.5 °F 71% 30.15 in 10.0 mi SE 11.5 mph - N/A   Clear
9:15 AM 41.4 °F 36.2 °F 31.6 °F 68% 30.15 in 10.0 mi ESE 8.1 mph - N/A   Clear
9:35 AM 42.4 °F 37.5 °F 31.5 °F 65% 30.15 in 10.0 mi ESE 8.1 mph - N/A   Clear
9:55 AM 43.2 °F 38.4 °F 31.8 °F 64% 30.15 in 10.0 mi ESE 8.1 mph - N/A   Clear
10:15 AM 44.8 °F 39.9 °F 32.0 °F 61% 30.14 in 10.0 mi ESE 9.2 mph - N/A   Clear
10:35 AM 46.6 °F - 32.2 °F 57% 30.13 in 10.0 mi SE 9.2 mph - N/A   Clear
10:55 AM 49.3 °F - 33.3 °F 54% 30.12 in 10.0 mi SE 12.7 mph 18.4 mph N/A   Clear
11:15 AM 50.5 °F - 33.6 °F 52% 30.10 in 10.0 mi ESE 13.8 mph 17.3 mph N/A   Clear
11:35 AM 51.1 °F - 33.4 °F 51% 30.09 in 10.0 mi SE 11.5 mph 19.6 mph N/A   Clear
11:55 AM 54.1 °F - 34.0 °F 47% 30.07 in 10.0 mi SSE 17.3 mph 21.9 mph N/A   Clear
12:15 PM 55.8 °F - 34.5 °F 45% 30.06 in 10.0 mi SE 13.8 mph 20.7 mph N/A   Clear
12:35 PM 56.8 °F - 35.2 °F 44% 30.05 in 10.0 mi SSE 16.1 mph 21.9 mph N/A   Clear
12:55 PM 57.9 °F - 35.6 °F 43% 30.03 in 10.0 mi SE 13.8 mph 20.7 mph N/A   Clear
1:15 PM 59.9 °F - 36.1 °F 41% 30.02 in 10.0 mi SSE 17.3 mph 21.9 mph N/A   Clear
1:35 PM 61.5 °F - 36.9 °F 40% 30.00 in 10.0 mi SE 15.0 mph 21.9 mph N/A   Clear
1:55 PM 62.6 °F - 37.0 °F 39% 29.98 in 10.0 mi SE 19.6 mph 25.3 mph N/A   Clear
2:15 PM 63.9 °F - 37.2 °F 37% 29.96 in 10.0 mi SE 17.3 mph 25.3 mph N/A   Clear
2:35 PM 65.3 °F - 37.9 °F 36% 29.95 in 10.0 mi SSE 17.3 mph 24.2 mph N/A   Clear
2:55 PM 64.4 °F - 37.9 °F 38% 29.93 in 10.0 mi SSE 18.4 mph 25.3 mph N/A   Clear
3:15 PM 65.3 °F - 38.8 °F 38% 29.91 in 10.0 mi SSE 18.4 mph 26.5 mph N/A   Clear
3:35 PM 66.2 °F - 39.4 °F 37% 29.89 in 10.0 mi SE 15.0 mph 26.5 mph N/A   Clear
3:55 PM 67.1 °F - 39.7 °F 37% 29.87 in 10.0 mi SE 17.3 mph - N/A   Clear
4:15 PM 68.4 °F - 40.3 °F 36% 29.85 in 10.0 mi SSE 19.6 mph 24.2 mph N/A   Clear
4:35 PM 68.5 °F - 41.2 °F 37% 29.84 in 10.0 mi SSE 16.1 mph 23.0 mph N/A   Clear
4:55 PM 69.4 °F - 41.2 °F 36% 29.83 in 10.0 mi SE 13.8 mph 19.6 mph N/A   Clear
5:15 PM 69.3 °F - 56.8 °F 65% 29.81 in 10.0 mi SSE 18.4 mph 25.3 mph N/A   Clear
5:35 PM 69.3 °F - 56.7 °F 64% 29.80 in 10.0 mi SSE 15.0 mph 26.5 mph N/A   Clear
5:55 PM 68.9 °F - 57.9 °F 68% 29.80 in 10.0 mi SE 15.0 mph 20.7 mph N/A   Clear
6:15 PM 69.3 °F - 59.0 °F 70% 29.80 in 10.0 mi SSE 13.8 mph 19.6 mph N/A   Clear
6:35 PM 69.4 °F - 59.9 °F 72% 29.79 in 10.0 mi SSE 11.5 mph 18.4 mph N/A   Clear
6:55 PM 69.8 °F - 60.3 °F 72% 29.78 in 10.0 mi SSE 10.4 mph 16.1 mph N/A   Clear
7:15 PM 68.9 °F - 60.8 °F 75% 29.78 in 10.0 mi SSE 12.7 mph 17.3 mph N/A   Clear
7:35 PM 68.0 °F - 61.5 °F 80% 29.77 in 10.0 mi SSE 10.4 mph 17.3 mph N/A   Clear
7:55 PM 66.4 °F - 61.7 °F 85% 29.76 in 10.0 mi SSE 10.4 mph - N/A   Clear
8:15 PM 65.7 °F - 61.9 °F 88% 29.76 in 10.0 mi SSE 13.8 mph - N/A   Clear
8:35 PM 65.3 °F - 62.4 °F 90% 29.76 in 10.0 mi SSE 15.0 mph 21.9 mph N/A   Clear
8:55 PM 64.6 °F - 62.4 °F 93% 29.76 in 10.0 mi SSE 16.1 mph 21.9 mph N/A   Clear
9:15 PM 63.7 °F - 62.6 °F 96% 29.75 in 10.0 mi SSE 12.7 mph 20.7 mph N/A   Clear
9:35 PM 63.0 °F - 62.6 °F 99% 29.75 in 10.0 mi SSE 15.0 mph 21.9 mph N/A   Clear
9:55 PM 63.0 °F - 61.9 °F 96% 29.74 in 10.0 mi SSE 15.0 mph 24.2 mph N/A   Clear
10:15 PM 62.6 °F - 62.6 °F 100% 29.74 in 10.0 mi SSE 16.1 mph 23.0 mph N/A   Clear
10:35 PM 61.7 °F - 56.8 °F 84% 29.74 in 10.0 mi SSE 13.8 mph 19.6 mph N/A   Clear
10:55 PM 61.3 °F - 59.0 °F 92% 29.74 in 10.0 mi South 10.4 mph - N/A   Clear
11:15 PM 60.6 °F - 60.4 °F 99% 29.73 in 10.0 mi SSE 11.5 mph 17.3 mph N/A   Clear
11:35 PM 60.3 °F - 60.3 °F 100% 29.73 in 10.0 mi SSE 10.4 mph - N/A   Clear
11:55 PM - - - N/A% 29.72 in 10.0 mi SSE 9.2 mph - N/A   Clear